Location: Banff
(51.1667°N, 115.5667°W)
Time: 22:36:26
(UTC+00:00)

Tiros 1 despin weight - All Passes

Search period start: 05 December 2020 00:00
Search period end: 15 December 2020 00:00
Orbit: 593 x 642 km, 48.2° (Epoch: 04 December)

Date Brightness Start Highest point End Pass type
(mag) Time Alt. Az. Time Alt. Az. Time Alt. Az.
05 Dec - 00:03:58 10° WSW 00:06:00 13° SW 00:08:03 10° SSW daylight
05 Dec - 17:34:01 10° SSW 17:38:03 30° SSE 17:42:07 10° E daylight
05 Dec - 19:14:34 10° WSW 19:19:09 57° S 19:23:46 10° E daylight
05 Dec - 20:55:54 10° W 21:00:29 54° SSW 21:05:04 10° ESE daylight
05 Dec - 22:37:38 10° W 22:41:31 26° SSW 22:45:23 10° SSE daylight
06 Dec - 16:10:48 10° S 16:13:30 15° SE 16:16:12 10° ESE daylight
06 Dec - 17:49:53 10° SW 17:54:14 41° SSE 17:58:39 10° E daylight
06 Dec - 19:30:52 10° WSW 19:35:29 61° S 19:40:08 10° E daylight
06 Dec - 21:12:19 10° W 21:16:46 43° SSW 21:21:13 10° SE daylight
06 Dec - 22:54:32 10° WSW 22:57:34 17° SW 23:00:36 10° S daylight
07 Dec - 16:25:50 10° SSW 16:29:31 24° SSE 16:33:14 10° E daylight
07 Dec - 18:05:59 10° WSW 18:10:30 52° SSE 18:15:04 10° E daylight
07 Dec - 19:47:13 10° W 19:51:50 59° S 19:56:27 10° ESE daylight
07 Dec - 21:28:48 10° W 21:32:59 32° SSW 21:37:08 10° SE daylight
08 Dec - 15:03:46 10° SSE 15:05:05 11° SE 15:06:24 10° ESE daylight
08 Dec - 16:41:29 10° SW 16:45:39 34° SSE 16:49:53 10° E daylight
08 Dec - 18:22:14 10° WSW 18:26:48 60° S 18:31:27 10° E daylight
08 Dec - 20:03:36 10° W 20:08:08 50° SSW 20:12:40 10° ESE daylight
08 Dec - 21:45:28 10° W 21:49:05 22° SSW 21:52:41 10° SSE daylight
09 Dec - 15:17:52 10° S 15:21:02 18° SE 15:24:14 10° E daylight
09 Dec - 16:57:27 10° SW 17:01:52 46° SSE 17:06:21 10° E daylight
09 Dec - 18:38:34 10° W 18:43:09 61° S 18:47:47 10° ESE daylight
09 Dec - 20:20:03 10° W 20:24:23 39° SSW 20:28:45 10° SE daylight
09 Dec - 22:02:40 10° WSW 22:05:06 14° SW 22:07:31 10° S daylight
10 Dec - 15:33:12 10° SSW 15:37:06 28° SSE 15:41:03 10° E daylight
10 Dec - 17:13:38 10° WSW 17:18:09 56° S 17:22:44 10° E daylight
10 Dec - 18:54:55 10° W 18:59:29 56° S 19:04:05 10° ESE daylight
10 Dec - 20:36:35 10° W 20:40:33 28° SSW 20:44:32 10° SSE daylight
11 Dec - 14:10:16 10° S 14:12:35 14° SE 14:14:55 10° ESE visible
11 Dec - 15:49:00 10° SW 15:53:15 39° SSE 15:57:35 10° E daylight
11 Dec - 17:29:55 10° WSW 17:34:29 61° S 17:39:06 10° E daylight
11 Dec - 19:11:19 10° W 19:15:46 45° SSW 19:20:15 10° SE daylight
11 Dec - 20:53:24 10° W 20:56:37 19° SW 20:59:51 10° S daylight
12 Dec - 14:25:05 10° SSW 14:28:35 22° SSE 14:32:08 10° E visible
12 Dec - 16:05:04 10° WSW 16:09:30 50° SSE 16:14:02 10° E daylight
12 Dec - 17:46:15 10° W 17:50:49 59° S 17:55:25 10° ESE daylight
12 Dec - 19:27:47 10° W 19:31:59 34° SSW 19:36:14 10° SE daylight
12 Dec - 21:11:12 10° WSW 21:12:35 11° SW 21:13:58 10° SSW daylight
13 Dec - 14:40:38 10° SW 14:44:41 32° SSE 14:48:48 10° E visible
13 Dec - 16:21:17 10° WSW 16:25:49 58° S 16:30:24 10° E daylight
13 Dec - 18:02:37 10° W 18:07:08 52° SSW 18:11:41 10° ESE daylight
13 Dec - 19:44:24 10° W 19:48:07 24° SSW 19:51:51 10° SSE daylight
14 Dec - 13:17:12 10° S 13:20:06 17° SE 13:23:02 10° ESE visible
14 Dec - 14:56:33 10° SW 15:00:53 43° SSE 15:05:17 10° E visible
14 Dec - 16:37:36 10° W 16:42:09 61° S 16:46:45 10° ESE daylight
14 Dec - 18:19:02 10° W 18:23:24 41° SSW 18:27:47 10° SE daylight
14 Dec - 20:01:27 10° WSW 20:04:09 15° SW 20:06:51 10° S daylight
